Yinhe 2-02

operational
NORAD ID: 51947 Int'l Des: NNA 2022-023 Owner: YINHE Country: CN Constellation: yinhe
LEOCIRCULAR

About Yinhe 2-02

Description loading...

Live Position

Loading 3D Globe...

Upcoming Passes

Altitude History

Altitude vs Time

uPlot chart will show altitude changes over time

Two-Line Element Set

1 51947U 22023B 26062.23133707 .00022338 00000-0 97570-3 0 9996
2 51947 63.4746 269.5221 0093429 346.7304 13.1352 15.18209547221630
Epoch: Mar 3, 2026 • Age: 24 hours

Current Status

Altitude 574.1 km
Velocity 7.54 km/s
Sub-Earth Point 29.61°N, 84.92°W
Launch Date Mar 5, 2022
Age 3.9 years
Type other

Technical Details

Classification Payload
Mass 190.00 kg
Dry Mass 180.00 kg
Total Mass 190.00 kg
Length 2.00 m
Diameter 1.00 m
Span 5.00 m
Shape Box+pan
Manufacturer YINHE
Bus Type YH
Phase Status In Orbit
Owner/State YINHE/CN

Large Constellations

Loading constellations...